Weather History for KGON - August, 2013

Change the Weather History Date:

Monday, August 12, 2013

  Actual Average Record
Temperature  
Mean Temperature 69 °F -  
Max Temperature 77 °F - - ()
Min Temperature 63 °F - - ()
Cooling Degree Days 4    
Growing Degree Days 19 (Base 50)    
Moisture  
Dew Point 66 °F    
Average Humidity 89    
Maximum Humidity 100    
Minimum Humidity 60    
Precipitation  
Precipitation 0.06 in - - ()
Sea Level Pressure  
Sea Level Pressure 29.99 in    
Wind  
Wind Speed 1 mph (South)    
Max Wind Speed 7 mph    
Max Gust Speed -    
Visibility 8 miles    
Events      
T = Trace of Precipitation, MM = Missing Value Source: NWS Daily Summary

Daily Weather History Graph

Daily Weather History Graph

Search for Another Location

Airport or City:

Trip Planner

Search our weather history database for the weather conditions in past years. The results will help you decide how hot, cold, wet, or windy it might be!

Date:

Astronomy

Aug. 12, 2013 Rise Set
Actual Time 5:54 AM EDT 7:51 PM EDT
Civil Twilight 5:24 AM EDT 8:20 PM EDT
Nautical Twilight 4:47 AM EDT 8:57 PM EDT
Astronomical Twilight 4:08 AM EDT 9:36 PM EDT
Moon 11:46 AM EDT (8/12) 10:37 PM EDT (8/12)
Length of Visible Light 14h 56m
Length of Day
13h 56m
Waxing Crescent, 31% of the Moon is Illuminated
Aug 12
Waxing Crescent
Aug 14
First Quarter
Aug 20
Full
Aug 28
Last Quarter
Sep 5
New

Hourly Weather History & Observations

Time (EDT) Temp. Dew Point Humidity Pressure Visibility Wind Dir Wind Speed Gust Speed Precip Events Conditions
12:56 AM 64.0 °F 62.1 °F 93% 30.04 in 10.0 mi Calm Calm - N/A   Mostly Cloudy
1:56 AM 63.0 °F 61.0 °F 93% 30.03 in 10.0 mi Calm Calm - N/A   Mostly Cloudy
2:56 AM 64.0 °F 62.1 °F 93% 30.02 in 10.0 mi Calm Calm - N/A   Scattered Clouds
3:56 AM 64.0 °F 63.0 °F 96% 30.02 in 10.0 mi Calm Calm - N/A   Overcast
4:56 AM 66.9 °F 64.0 °F 90% 30.01 in 10.0 mi Calm Calm - N/A   Overcast
5:56 AM 69.1 °F 66.9 °F 93% 30.01 in 10.0 mi Calm Calm - 0.06 in   Overcast
6:56 AM 69.1 °F 68.0 °F 96% 30.02 in 8.0 mi Calm Calm - N/A   Overcast
7:56 AM 71.1 °F 69.1 °F 93% 30.02 in 8.0 mi Calm Calm - N/A   Overcast
8:28 AM 71.6 °F 69.8 °F 94% 30.02 in 9.0 mi Calm Calm - N/A   Overcast
8:45 AM 71.6 °F 69.8 °F 94% 30.02 in 9.0 mi Calm Calm - N/A   Mostly Cloudy
8:56 AM 73.0 °F 70.0 °F 90% 30.02 in 8.0 mi South 3.5 mph - N/A   Mostly Cloudy
9:25 AM 71.6 °F 69.8 °F 94% 30.02 in 9.0 mi South 3.5 mph - N/A   Mostly Cloudy
9:32 AM 71.6 °F 69.8 °F 94% 30.02 in 9.0 mi SSE 4.6 mph - N/A   Overcast
9:43 AM 71.6 °F 69.8 °F 94% 30.02 in 9.0 mi Calm Calm - N/A   Overcast
9:56 AM 73.0 °F 69.1 °F 87% 30.02 in 9.0 mi Calm Calm - N/A   Mostly Cloudy
10:56 AM 75.9 °F 61.0 °F 60% 30.02 in 10.0 mi NE 6.9 mph - N/A   Mostly Cloudy
11:56 AM 75.0 °F 68.0 °F 79% 30.01 in 10.0 mi South 6.9 mph - N/A   Partly Cloudy
12:56 PM 73.0 °F 68.0 °F 84% 30.00 in 9.0 mi SSW 5.8 mph - N/A   Scattered Clouds
1:56 PM 73.9 °F 66.0 °F 76% 29.99 in 10.0 mi SSW 4.6 mph - N/A   Mostly Cloudy
2:56 PM 73.9 °F 68.0 °F 82% 29.98 in 10.0 mi South 5.8 mph - N/A   Mostly Cloudy
3:56 PM 73.0 °F 66.0 °F 79% 29.97 in 10.0 mi SSW 5.8 mph - N/A   Scattered Clouds
4:56 PM 73.0 °F 64.9 °F 76% 29.96 in 10.0 mi South 6.9 mph - N/A   Mostly Cloudy
5:56 PM 73.0 °F 64.9 °F 76% 29.96 in 10.0 mi SSW 3.5 mph - N/A   Mostly Cloudy
6:56 PM 72.0 °F 64.9 °F 78% 29.95 in 10.0 mi South 3.5 mph - N/A   Partly Cloudy
7:56 PM 70.0 °F 66.9 °F 90% 29.94 in 8.0 mi South 3.5 mph - N/A   Clear
8:56 PM 66.9 °F 64.9 °F 93% 29.94 in 6.0 mi Calm Calm - 0.00 in   Clear
9:56 PM 64.9 °F 64.0 °F 97% 29.95 in 6.0 mi Calm Calm - N/A   Clear
10:31 PM 66.2 °F 64.4 °F 94% 29.94 in 1.8 mi Calm Calm - N/A   Clear
10:42 PM 64.4 °F 64.4 °F 100% 29.94 in 4.0 mi NNE 3.5 mph - N/A   Clear
10:56 PM 66.0 °F 64.0 °F 93% 29.94 in 7.0 mi Calm Calm - N/A   Clear
11:56 PM 64.9 °F 64.0 °F 97% 29.94 in 3.0 mi Calm Calm - N/A   Clear